| time (UTC) | temp F | wind direction | speed MPH | gust MPH | rain 1hr in | rain 24hr in | rain mn in | humidity % | barometer mb |
| 20260901113058 | 56 | 273 | 3.0 | 7.0 | 0.00 | 0.00 | 0.00 | 73 | 1010.3 |
| 20260901111608 | 57 | 275 | 3.0 | 7.0 | 0.00 | 0.00 | 0.00 | 72 | 1010.2 |
| 20260901110100 | 57 | 301 | 1.0 | 9.0 | 0.00 | 0.00 | 0.00 | 72 | 1010.2 |
| 20260901104558 | 57 | 289 | 3.0 | 7.0 | 0.00 | 0.00 | 0.00 | 72 | 1010.2 |
| 20260901103123 | 57 | 264 | 3.0 | 7.0 | 0.00 | 0.00 | 0.00 | 72 | 1010.1 |
| 20260901101602 | 58 | 259 | 2.0 | 4.0 | 0.00 | 0.00 | 0.00 | 72 | 1010.1 |
| 20260901100104 | 58 | 311 | 4.0 | 7.0 | 0.00 | 0.00 | 0.00 | 72 | 1010.1 |
| 20260901094557 | 58 | 284 | 2.0 | 8.0 | 0.00 | 0.00 | 0.00 | 71 | 1010.2 |
| 20260901093125 | 58 | 270 | 3.0 | 8.0 | 0.00 | 0.00 | 0.00 | 72 | 1010.4 |
| 20260901091605 | 58 | 293 | 3.0 | 7.0 | 0.00 | 0.00 | 0.00 | 71 | 1010.3 |
| 20260901090057 | 59 | 284 | 3.0 | 8.0 | 0.00 | 0.00 | 0.00 | 69 | 1010.4 |
| 20260901084557 | 59 | 287 | 3.0 | 8.0 | 0.00 | 0.00 | 0.00 | 70 | 1010.3 |
| 20260901083058 | 59 | 269 | 3.0 | 6.0 | 0.00 | 0.00 | 0.00 | 70 | 1010.3 |
| 20260901081610 | 60 | 264 | 3.0 | 4.0 | 0.00 | 0.00 | 0.00 | 68 | 1010.4 |
| 20260901080100 | 60 | 290 | 2.0 | 6.0 | 0.00 | 0.00 | 0.00 | 68 | 1010.5 |
| 20260901074600 | 62 | 269 | 2.0 | 3.0 | 0.00 | 0.00 | 0.00 | 65 | 1010.6 |
| 20260901073058 | 65 | 253 | 0.0 | 3.0 | 0.00 | 0.00 | 0.00 | 60 | 1010.7 |
| 20260901071605 | 66 | 337 | 1.0 | 4.0 | 0.00 | 0.00 | 0.00 | 59 | 1010.7 |
| 20260901070103 | 64 | 244 | 2.0 | 4.0 | 0.00 | 0.00 | 0.00 | 61 | 1010.8 |
| 20260901070006 | 64 | 198 | 2.0 | 6.0 | 0.00 | 0.00 | 0.00 | 61 | 1010.9 |
| 20260901064504 | 65 | 276 | 1.0 | 4.0 | 0.00 | 0.00 | 0.00 | 61 | 1011.0 |
| 20260901063100 | 65 | 273 | 2.0 | 6.0 | 0.00 | 0.00 | 0.00 | 61 | 1011.1 |
| 20260901061604 | 66 | 254 | 3.0 | 8.0 | 0.00 | 0.00 | 0.00 | 60 | 1011.3 |
| 20260901060004 | 67 | 266 | 5.0 | 8.0 | 0.00 | 0.00 | 0.00 | 60 | 1011.4 |
| 20260901054600 | 67 | 227 | 5.0 | 13.0 | 0.00 | 0.00 | 0.00 | 58 | 1011.5 |
| 20260901054501 | 67 | 268 | 6.0 | 13.0 | 0.00 | 0.00 | 0.00 | 58 | 1011.4 |
| 20260901053001 | 68 | 242 | 8.0 | 17.0 | 0.00 | 0.00 | 0.00 | 56 | 1011.5 |
| 20260901051501 | 68 | 259 | 5.0 | 15.0 | 0.00 | 0.00 | 0.00 | 56 | 1011.6 |
| 20260901050101 | 68 | 265 | 9.0 | 16.0 | 0.00 | 0.00 | 0.00 | 56 | 1011.5 |
| 20260901044602 | 65 | 253 | 3.0 | 5.0 | 0.00 | 0.00 | 0.00 | 59 | 1011.4 |
| 20260901043120 | 65 | 232 | 5.0 | 11.0 | 0.00 | 0.00 | 0.00 | 59 | 1011.4 |
| 20260901041610 | 64 | 267 | 2.0 | 4.0 | 0.00 | 0.00 | 0.00 | 60 | 1011.3 |
| 20260901040104 | 67 | 196 | 1.0 | 2.0 | 0.00 | 0.00 | 0.00 | 55 | 1010.8 |
| 20260901040002 | 67 | 196 | 0.0 | 2.0 | 0.00 | 0.00 | 0.00 | 54 | 1010.8 |
| 20260901034606 | 67 | 196 | 1.0 | 3.0 | 0.00 | 0.00 | 0.00 | 54 | 1010.8 |
| 20260901034502 | 67 | 196 | 1.0 | 3.0 | 0.00 | 0.00 | 0.00 | 54 | 1010.8 |
| 20260901033108 | 68 | 196 | 1.0 | 4.0 | 0.00 | 0.00 | 0.00 | 53 | 1010.6 |
| 20260901033002 | 68 | 196 | 2.0 | 4.0 | 0.00 | 0.00 | 0.00 | 53 | 1010.6 |
| 20260901031600 | 71 | 199 | 0.0 | 1.0 | 0.00 | 0.00 | 0.00 | 48 | 1010.6 |
| 20260901030001 | 71 | 199 | 1.0 | 3.0 | 0.00 | 0.00 | 0.00 | 47 | 1010.4 |
| 20260901024607 | 72 | 199 | 1.0 | 3.0 | 0.00 | 0.00 | 0.00 | 46 | 1009.9 |
| 20260901023059 | 72 | 90 | 0.0 | 2.0 | 0.00 | 0.00 | 0.00 | 45 | 1009.8 |
| 20260901021606 | 73 | 90 | 0.0 | 2.0 | 0.00 | 0.00 | 0.00 | 44 | 1009.4 |
| 20260901020059 | 73 | 90 | 1.0 | 3.0 | 0.00 | 0.00 | 0.00 | 44 | 1009.1 |
| 20260901020002 | 73 | 90 | 1.0 | 3.0 | 0.00 | 0.00 | 0.00 | 44 | 1009.1 |
| 20260901014604 | 74 | 68 | 3.0 | 8.0 | 0.00 | 0.00 | 0.00 | 43 | 1008.8 |
| 20260901013101 | 75 | 88 | 4.0 | 8.0 | 0.00 | 0.00 | 0.00 | 42 | 1008.5 |
| 20260901011603 | 76 | 103 | 7.0 | 14.0 | 0.00 | 0.00 | 0.00 | 41 | 1008.6 |
| 20260901010001 | 77 | 119 | 8.0 | 14.0 | 0.00 | 0.00 | 0.00 | 40 | 1008.7 |
| 20260901004600 | 78 | 84 | 6.0 | 15.0 | 0.00 | 0.00 | 0.00 | 39 | 1008.7 |
| 20260901003102 | 78 | 74 | 8.0 | 15.0 | 0.00 | 0.00 | 0.00 | 38 | 1008.7 |
| 20260901001601 | 79 | 101 | 10.0 | 14.0 | 0.00 | 0.00 | 0.00 | 37 | 1008.6 |
| 20260901000059 | 79 | 94 | 4.0 | 8.0 | 0.00 | 0.00 | 0.00 | 37 | 1008.5 |
| 20260901000002 | 79 | 109 | 3.0 | 11.0 | 0.00 | 0.00 | 0.00 | 37 | 1008.5 |
| 20260831234604 | 80 | 137 | 7.0 | 13.0 | 0.00 | 0.00 | 0.00 | 36 | 1008.4 |
| 20260831233100 | 79 | 100 | 4.0 | 9.0 | 0.00 | 0.00 | 0.00 | 37 | 1008.3 |
| 20260831231559 | 79 | 103 | 7.0 | 13.0 | 0.00 | 0.00 | 0.00 | 36 | 1008.3 |
| 20260831230105 | 80 | 99 | 9.0 | 15.0 | 0.00 | 0.00 | 0.00 | 36 | 1008.3 |
| 20260831230000 | 80 | 125 | 8.0 | 15.0 | 0.00 | 0.00 | 0.00 | 36 | 1008.3 |
| 20260831224600 | 81 | 125 | 8.0 | 17.0 | 0.00 | 0.00 | 0.00 | 35 | 1008.3 |
| 20260831223103 | 81 | 134 | 8.0 | 15.0 | 0.00 | 0.00 | 0.00 | 34 | 1008.4 |
| 20260831221607 | 82 | 117 | 8.0 | 15.0 | 0.00 | 0.00 | 0.00 | 32 | 1008.6 |
| 20260831220126 | 80 | 123 | 11.0 | 23.0 | 0.00 | 0.00 | 0.00 | 32 | 1008.7 |
| 20260831214559 | 81 | 86 | 7.0 | 16.0 | 0.00 | 0.00 | 0.00 | 30 | 1008.6 |
| 20260831213105 | 82 | 42 | 9.0 | 18.0 | 0.00 | 0.00 | 0.00 | 30 | 1008.9 |
| 20260831211559 | 83 | 74 | 5.0 | 19.0 | 0.00 | 0.00 | 0.00 | 31 | 1009.0 |
| 20260831210058 | 82 | 65 | 8.0 | 17.0 | 0.00 | 0.00 | 0.00 | 30 | 1009.3 |
| 20260831204602 | 82 | 102 | 3.0 | 14.0 | 0.00 | 0.00 | 0.00 | 31 | 1009.6 |
| 20260831203133 | 81 | 82 | 10.0 | 17.0 | 0.00 | 0.00 | 0.00 | 33 | 1009.9 |
| 20260831201559 | 81 | 123 | 7.0 | 19.0 | 0.00 | 0.00 | 0.00 | 31 | 1009.9 |
| 20260831200100 | 82 | 99 | 9.0 | 18.0 | 0.00 | 0.00 | 0.00 | 30 | 1010.1 |
| 20260831200000 | 82 | 163 | 10.0 | 18.0 | 0.00 | 0.00 | 0.00 | 30 | 1010.1 |
| 20260831194605 | 82 | 77 | 10.0 | 22.0 | 0.00 | 0.00 | 0.00 | 29 | 1010.2 |
| 20260831193059 | 84 | 70 | 7.0 | 15.0 | 0.00 | 0.00 | 0.00 | 29 | 1010.3 |
| 20260831191559 | 84 | 123 | 8.0 | 16.0 | 0.00 | 0.00 | 0.00 | 26 | 1010.5 |
| 20260831190135 | 82 | 105 | 9.0 | 17.0 | 0.00 | 0.00 | 0.00 | 26 | 1010.5 |
| 20260831184558 | 83 | 204 | 3.0 | 14.0 | 0.00 | 0.00 | 0.00 | 25 | 1010.8 |
| 20260831183058 | 82 | 100 | 7.0 | 16.0 | 0.00 | 0.00 | 0.00 | 24 | 1010.9 |
| 20260831181604 | 82 | 48 | 5.0 | 13.0 | 0.00 | 0.00 | 0.00 | 23 | 1010.9 |
| 20260831180059 | 82 | 39 | 5.0 | 11.0 | 0.00 | 0.00 | 0.00 | 25 | 1011.1 |
| 20260831174600 | 82 | 67 | 8.0 | 16.0 | 0.00 | 0.00 | 0.00 | 29 | 1011.1 |
| 20260831173101 | 82 | 59 | 5.0 | 15.0 | 0.00 | 0.00 | 0.00 | 30 | 1011.2 |
| 20260831171606 | 81 | 53 | 2.0 | 13.0 | 0.00 | 0.00 | 0.00 | 29 | 1011.1 |
| 20260831170057 | 80 | 161 | 8.0 | 18.0 | 0.00 | 0.00 | 0.00 | 31 | 1011.2 |
| 20260831164603 | 80 | 111 | 3.0 | 12.0 | 0.00 | 0.00 | 0.00 | 32 | 1011.2 |
| 20260831163059 | 79 | 104 | 2.0 | 9.0 | 0.00 | 0.00 | 0.00 | 34 | 1011.1 |
| 20260831161603 | 79 | 113 | 4.0 | 10.0 | 0.00 | 0.00 | 0.00 | 37 | 1011.0 |
| 20260831160126 | 79 | 164 | 2.0 | 7.0 | 0.00 | 0.00 | 0.00 | 39 | 1011.0 |
| 20260831154606 | 77 | 116 | 1.0 | 3.0 | 0.00 | 0.00 | 0.00 | 42 | 1010.9 |
| 20260831153129 | 74 | 277 | 0.0 | 3.0 | 0.00 | 0.00 | 0.00 | 47 | 1011.0 |
| 20260831151559 | 72 | 249 | 2.0 | 4.0 | 0.00 | 0.00 | 0.00 | 50 | 1011.0 |
| 20260831150059 | 70 | 263 | 3.0 | 7.0 | 0.00 | 0.00 | 0.00 | 54 | 1011.0 |
| 20260831144606 | 68 | 274 | 3.0 | 6.0 | 0.00 | 0.00 | 0.00 | 59 | 1011.1 |
| 20260831143101 | 65 | 279 | 3.0 | 6.0 | 0.00 | 0.00 | 0.00 | 64 | 1011.2 |
| 20260831141558 | 61 | 263 | 2.0 | 6.0 | 0.00 | 0.00 | 0.00 | 70 | 1011.4 |
| 20260831140059 | 58 | 259 | 2.0 | 5.0 | 0.00 | 0.00 | 0.00 | 74 | 1011.4 |
| 20260831134605 | 57 | 306 | 2.0 | 7.0 | 0.00 | 0.00 | 0.00 | 74 | 1011.2 |
| 20260831133058 | 57 | 273 | 4.0 | 7.0 | 0.00 | 0.00 | 0.00 | 73 | 1011.3 |
| 20260831131603 | 58 | 238 | 3.0 | 4.0 | 0.00 | 0.00 | 0.00 | 71 | 1011.1 |
| 20260831130112 | 57 | 279 | 3.0 | 8.0 | 0.00 | 0.00 | 0.00 | 73 | 1010.9 |
| 20260831124602 | 57 | 279 | 3.0 | 6.0 | 0.00 | 0.00 | 0.00 | 72 | 1010.9 |
| 20260831123058 | 57 | 293 | 1.0 | 5.0 | 0.00 | 0.00 | 0.00 | 73 | 1010.5 |
| 20260831121558 | 56 | 327 | 3.0 | 10.0 | 0.00 | 0.00 | 0.00 | 74 | 1010.6 |
| 20260831120144 | 56 | 273 | 3.0 | 6.0 | 0.00 | 0.00 | 0.00 | 73 | 1010.6 |
| 20260831114559 | 56 | 304 | 3.0 | 8.0 | 0.00 | 0.00 | 0.00 | 73 | 1010.7 |